Regional Weather Roundup
Issued by NWS Cleveland, OH

Home | Current Version | Previous Version | Graphics & Text | Print | Product List | Glossary On
Versions: 1 2 3 4 5 6 7 8 9 10 11 12 13 14 15 16 17 18 19 20 21 22 23 24 25 26 27 28 29 30 31 32 33 34 35 36 37 38 39 40 41 42 43 44 45 46 47 48 49 50
000
ASUS41 KCLE 290302
RWRCLE
OHIO REGIONAL WEATHER ROUNDUP
NATIONAL WEATHER SERVICE CLEVELAND, OH
1100 PM EDT SAT MAR 28 2015

NOTE: "FAIR" INDICATES FEW OR NO CLOUDS BELOW 12,000 FEET WITH NO
SIGNIFICANT WEATHER AND/OR OBSTRUCTIONS TO VISIBILITY.

OHZ001>008-015>018-024>027-034-035-043-044-290400-
   NORTHWEST OHIO

CITY           SKY/WX    TMP DP  RH WIND       PRES   REMARKS
DEFIANCE       CLEAR     26  15  63 S3        30.32R
FINDLAY        CLEAR     25  17  72 SW6       30.31R WCI  18
TOLEDO EXPRESS CLEAR     26  13  57 SW3       30.31R
TOLEDO EXEC    CLEAR     26  14  60 SW7       30.32R WCI  18
LIMA           CLEAR     28  16  60 S5        30.32R WCI  23
$$

OHZ009>014-019>023-028>033-038-089-290400-
   NORTHEAST OHIO

CITY           SKY/WX    TMP DP  RH WIND       PRES   REMARKS
CLE-HOPKINS    CLEAR     22  11  62 S6        30.33S WCI  14
CLE-LAKEFRONT  CLEAR     24  10  55 SW6       30.31S WCI  17
CUY CO. ARPT   CLEAR     23  14  68 SW6       30.31S WCI  16
LORAIN-ELYRIA  CLEAR     21  15  78 S5        30.31S WCI  15
ASHTABULA      CLEAR     19  13  77 W5        30.29R WCI  12
AKRON-CANTON   CLEAR     21   8  57 W5        30.29R WCI  15
WOOSTER        CLEAR     20  13  74 CALM      30.30S
MANSFIELD      CLEAR     19  11  70 S6        30.28F WCI  11
YOUNGSTOWN     CLEAR     20   9  62 W5        30.27R WCI  13
$$

OHZ042-051>053-060>062-070>072-077>081-290400-
  SOUTHWEST OHIO

CITY           SKY/WX    TMP DP  RH WIND       PRES   REMARKS
CINC-COVINGTON CLEAR     31  11  43 NE6       30.34R WCI  25
CINC-LUNKEN    CLEAR     27  20  75 CALM      30.37R
HAMILTON       CLEAR     25  16  68 CALM      30.36R
DAYTON         CLEAR     28  14  55 CALM      30.34R
WRIGHT-PAT AFB CLEAR     24  15  68 W1        30.34R
DAYTON GENERAL CLEAR     27  15  61 CALM      30.33R
WILMINGTON     CLEAR     25  15  66 NE3       30.33R
$$

OHZ036-037-039>041-045>050-054>059-063>069-073>076-082>088-290400-
  CENTRAL AND SOUTHEAST OHIO

CITY           SKY/WX    TMP DP  RH WIND       PRES   REMARKS
COLUMBUS       CLEAR     25  12  58 CALM      30.34R
OSU AIRPORT    CLEAR     26  11  52 CALM      30.33S
BOLTON FIELD   CLEAR    N/A N/A N/A CALM      30.34R
RICKENBACK AFB CLEAR     25  13  60 NE3       30.34R
NEWARK         CLEAR     22  15  75 CALM      30.33S
MARION         CLEAR     20  13  74 S6        30.32S WCI  12
LANCASTER      CLEAR     23  16  74 CALM      30.34S
ZANESVILLE     CLEAR     22   9  57 CALM      30.33R
NEW PHILLY     CLEAR     23  11  60 CALM      30.33R
$$



USA.gov is the U.S. government's official web portal to all federal, state and local government web resources and services.